Location: Newark
(36.1358°N, 115.1208°W)
Time: 02:45:14
(UTC+00:00)

Courier 1B - All Passes

Search period start: 23 February 2020 00:00
Search period end: 04 March 2020 00:00
Orbit: 962 x 1209 km, 28.3° (Epoch: 22 February)

Date Brightness Start Highest point End Pass type
(mag) Time Alt. Az. Time Alt. Az. Time Alt. Az.
23 Feb - 01:32:45 10° WSW 01:39:42 44° S 01:46:15 10° ESE daylight
23 Feb - 03:27:26 10° WSW 03:33:11 27° SSW 03:38:41 10° SSE visible
23 Feb - 20:52:50 10° SSW 20:58:30 22° SSE 21:04:04 10° ESE daylight
23 Feb - 22:45:01 10° SW 22:52:07 40° SSE 22:58:56 10° ESE daylight
24 Feb - 00:38:46 10° WSW 00:45:56 46° S 00:52:42 10° ESE daylight
24 Feb - 02:33:14 10° WSW 02:39:33 32° SSW 02:45:34 10° SE visible
24 Feb - 04:29:40 10° WSW 04:32:45 13° SSW 04:35:44 10° S visible
24 Feb - 20:00:01 10° S 20:04:47 17° SSE 20:09:30 10° ESE daylight
24 Feb - 21:51:21 10° SW 21:58:19 36° SSE 22:05:05 10° ESE daylight
24 Feb - 23:44:50 10° WSW 23:52:08 47° S 23:59:05 10° ESE daylight
25 Feb - 01:39:06 10° WSW 01:45:53 38° SSW 01:52:17 10° SE daylight
25 Feb - 03:34:36 10° WSW 03:39:12 18° SSW 03:43:39 10° SSE visible
25 Feb - 19:07:53 10° S 19:11:05 13° SSE 19:14:16 10° SE daylight
25 Feb - 20:57:50 10° SW 21:04:31 31° SSE 21:11:05 10° ESE daylight
25 Feb - 22:50:56 10° WSW 22:58:18 46° S 23:05:22 10° ESE daylight
26 Feb - 00:45:03 10° WSW 00:52:08 42° S 00:58:51 10° ESE daylight
26 Feb - 02:40:02 10° WSW 02:45:37 24° SSW 02:50:58 10° SSE visible
26 Feb - 20:04:31 10° SSW 20:10:45 26° SSE 20:16:57 10° ESE daylight
26 Feb - 21:57:08 10° WSW 22:04:27 44° S 22:11:35 10° ESE daylight
26 Feb - 23:51:02 10° WSW 23:58:20 46° S 00:05:19 10° ESE daylight
27 Feb - 01:45:41 10° WSW 01:51:59 29° SSW 01:57:58 10° SE visible
27 Feb - 03:43:45 10° SW 03:45:08 11° SSW 03:46:30 10° SSW visible
27 Feb - 19:11:29 10° SSW 19:17:00 21° SSE 19:22:34 10° ESE daylight
27 Feb - 21:03:25 10° SW 21:10:37 40° SSE 21:17:42 10° E daylight
27 Feb - 22:57:04 10° WSW 23:04:30 48° S 23:11:40 10° ESE daylight
28 Feb - 00:51:29 10° W 00:58:16 35° SSW 01:04:45 10° SE daylight
28 Feb - 02:47:34 10° WSW 02:51:34 15° SSW 02:55:28 10° S visible
28 Feb - 18:18:52 10° S 18:23:18 16° SSE 18:27:47 10° ESE daylight
28 Feb - 20:09:50 10° SW 20:16:47 35° SSE 20:23:43 10° E daylight
28 Feb - 22:03:10 10° WSW 22:10:38 48° S 22:17:56 10° ESE daylight
28 Feb - 23:57:22 10° W 00:04:30 40° SSW 00:11:21 10° SE daylight
29 Feb - 01:52:41 10° WSW 01:57:58 21° SSW 02:03:04 10° SSE visible
29 Feb - 17:27:14 10° SSE 17:29:38 12° SSE 17:32:04 10° SE daylight
29 Feb - 19:16:27 10° SW 19:22:59 30° SSE 19:29:36 10° ESE daylight
29 Feb - 21:09:20 10° WSW 21:16:46 46° S 21:24:06 10° ESE daylight
29 Feb - 23:03:20 10° WSW 23:10:41 44° S 23:17:48 10° ESE daylight
01 Mar - 00:58:11 10° WSW 01:04:18 26° SSW 01:10:12 10° SSE daylight
01 Mar - 18:23:17 10° SSW 18:29:14 25° SSE 18:35:18 10° ESE daylight
01 Mar - 20:15:37 10° WSW 20:22:53 43° S 20:30:12 10° ESE daylight
01 Mar - 22:09:22 10° WSW 22:16:49 47° S 22:24:08 10° ESE daylight
02 Mar - 00:03:53 10° WSW 00:10:35 32° SSW 00:17:03 10° SE daylight
02 Mar - 02:00:53 10° SW 02:03:52 13° SSW 02:06:48 10° S visible
02 Mar - 17:30:26 10° SSW 17:35:32 20° SSE 17:40:46 10° ESE daylight
02 Mar - 19:22:01 10° SW 19:29:03 39° SSE 19:36:12 10° E daylight
02 Mar - 21:15:29 10° WSW 21:22:56 48° S 21:30:23 10° ESE daylight
02 Mar - 23:09:45 10° W 23:16:48 37° SSW 23:23:41 10° SE daylight
03 Mar - 01:05:30 10° WSW 01:10:15 18° SSW 01:14:53 10° S daylight
03 Mar - 16:38:07 10° S 16:41:53 15° SSE 16:45:44 10° ESE daylight
03 Mar - 18:28:34 10° SW 18:35:15 34° SSE 18:42:06 10° E daylight
03 Mar - 20:21:40 10° WSW 20:29:03 48° S 20:36:31 10° ESE daylight
03 Mar - 22:15:43 10° W 22:22:59 42° SSW 22:30:09 10° SE daylight
